Time,TemperatureF,DewpointF,PressureIn,WindDirection,WindDirectionDegrees,WindSpeedMPH,WindSpeedGustMPH,Humidity,HourlyPrecipIn,Conditions,Clouds,dailyrainin,SolarRadiationWatts/m^2,SoftwareType,DateUTC
2013-04-19 00:02:00,51.5,43.8,30.12,South,183,1.0,5.0,75,0.00,OVC,OVC,0.00,0.0,WeatherDisplay:10.37,2013-04-19 04:02:00,
2013-04-19 00:07:00,51.6,44.3,30.12,SSW,204,0.0,4.0,76,0.00,OVC,OVC,0.00,0.0,WeatherDisplay:10.37,2013-04-19 04:07:00,
2013-04-19 00:12:00,51.6,44.3,30.12,South,176,1.0,4.0,76,0.00,OVC,OVC,0.00,0.0,WeatherDisplay:10.37,2013-04-19 04:12:00,
2013-04-19 00:17:00,51.6,44.3,30.12,ESE,123,0.0,0.0,76,0.00,OVC,OVC,0.00,0.0,WeatherDisplay:10.37,2013-04-19 04:17:00,
2013-04-19 00:22:00,51.7,44.7,30.12,SE,141,0.0,2.0,77,0.00,OVC,OVC,0.00,0.0,WeatherDisplay:10.37,2013-04-19 04:22:00,
2013-04-19 00:27:00,51.7,44.7,30.12,SSE,151,0.0,1.0,77,0.00,OVC,OVC,0.00,0.0,WeatherDisplay:10.37,2013-04-19 04:27:00,
2013-04-19 00:32:00,51.8,44.8,30.12,SSE,163,0.0,0.0,77,0.00,OVC,OVC,0.00,0.0,WeatherDisplay:10.37,2013-04-19 04:32:00,
2013-04-19 00:37:00,51.8,45.2,30.12,SSE,161,0.0,5.0,78,0.00,OVC,OVC,0.00,0.0,WeatherDisplay:10.37,2013-04-19 04:37:00,
2013-04-19 00:42:00,51.8,45.2,30.12,South,178,0.0,4.0,78,0.00,OVC,OVC,0.00,0.0,WeatherDisplay:10.37,2013-04-19 04:42:00,
2013-04-19 00:47:00,51.9,45.3,30.11,South,180,0.0,0.0,78,0.00,OVC,OVC,0.00,0.0,WeatherDisplay:10.37,2013-04-19 04:47:00,
2013-04-19 00:52:00,51.9,45.3,30.11,South,184,0.0,1.0,78,0.00,OVC,OVC,0.00,0.0,WeatherDisplay:10.37,2013-04-19 04:52:00,
2013-04-19 00:57:00,51.9,45.3,30.11,SSW,207,0.0,3.0,78,0.00,OVC,OVC,0.00,0.0,WeatherDisplay:10.37,2013-04-19 04:57:00,
2013-04-19 01:02:00,51.9,45.6,30.11,South,179,1.0,4.0,79,0.00,OVC,OVC,0.00,0.0,WeatherDisplay:10.37,2013-04-19 05:02:00,
2013-04-19 01:07:00,52.0,45.7,30.10,SSE,155,0.0,0.0,79,0.00,OVC,OVC,0.00,0.0,WeatherDisplay:10.37,2013-04-19 05:07:00,
2013-04-19 01:12:00,52.0,45.7,30.10,SSE,150,0.0,1.0,79,0.00,OVC,OVC,0.00,0.0,WeatherDisplay:10.37,2013-04-19 05:12:00,
2013-04-19 01:17:00,52.0,45.7,30.10,SSE,150,0.0,0.0,79,0.00,OVC,OVC,0.00,0.0,WeatherDisplay:10.37,2013-04-19 05:17:00,
2013-04-19 01:22:00,52.0,45.7,30.09,SSE,150,0.0,0.0,79,0.00,OVC,OVC,0.00,0.0,WeatherDisplay:10.37,2013-04-19 05:22:00,
2013-04-19 01:27:00,52.0,46.0,30.09,SSE,150,0.0,0.0,80,0.00,OVC,OVC,0.00,0.0,WeatherDisplay:10.37,2013-04-19 05:27:00,
2013-04-19 01:32:00,52.0,46.0,30.09,SSE,150,0.0,2.0,80,0.00,OVC,OVC,0.00,0.0,WeatherDisplay:10.37,2013-04-19 05:32:00,
2013-04-19 01:37:00,52.0,46.0,30.09,SSE,149,1.0,3.0,80,0.00,OVC,OVC,0.00,0.0,WeatherDisplay:10.37,2013-04-19 05:37:00,
2013-04-19 01:42:00,52.0,46.0,30.08,South,170,0.0,5.0,80,0.00,OVC,OVC,0.00,0.0,WeatherDisplay:10.37,2013-04-19 05:42:00,
2013-04-19 01:47:00,52.0,46.3,30.08,South,188,1.0,3.0,81,0.00,OVC,OVC,0.00,0.0,WeatherDisplay:10.37,2013-04-19 05:47:00,
2013-04-19 01:52:00,52.0,46.3,30.07,ESE,117,0.0,4.0,81,0.00,OVC,OVC,0.00,0.0,WeatherDisplay:10.37,2013-04-19 05:52:00,
2013-04-19 01:57:00,52.0,46.3,30.06,ESE,109,0.0,2.0,81,0.00,OVC,OVC,0.00,0.0,WeatherDisplay:10.37,2013-04-19 05:57:00,
2013-04-19 02:02:00,52.0,46.7,30.06,East,91,0.0,2.0,82,0.00,OVC,OVC,0.00,0.0,WeatherDisplay:10.37,2013-04-19 06:02:00,
2013-04-19 02:07:00,52.0,46.7,30.06,ESE,103,1.0,3.0,82,0.00,OVC,OVC,0.00,0.0,WeatherDisplay:10.37,2013-04-19 06:07:00,
2013-04-19 02:12:00,52.0,47.0,30.05,ESE,106,0.0,4.0,83,0.00,OVC,OVC,0.00,0.0,WeatherDisplay:10.37,2013-04-19 06:12:00,
2013-04-19 02:17:00,52.0,47.0,30.05,ESE,105,0.0,1.0,83,0.00,OVC,OVC,0.00,0.0,WeatherDisplay:10.37,2013-04-19 06:17:00,
2013-04-19 02:22:00,52.0,47.0,30.04,East,100,1.0,3.0,83,0.00,OVC,OVC,0.00,0.0,WeatherDisplay:10.37,2013-04-19 06:22:00,
2013-04-19 02:27:00,52.0,47.3,30.04,East,101,0.0,2.0,84,0.00,OVC,OVC,0.00,0.0,WeatherDisplay:10.37,2013-04-19 06:27:00,
2013-04-19 02:32:00,52.0,47.3,30.04,ESE,114,0.0,5.0,84,0.00,OVC,OVC,0.00,0.0,WeatherDisplay:10.37,2013-04-19 06:32:00,
2013-04-19 02:37:00,52.0,47.6,30.04,ESE,116,1.0,4.0,85,0.00,OVC,OVC,0.00,0.0,WeatherDisplay:10.37,2013-04-19 06:37:00,
2013-04-19 02:42:00,52.1,47.7,30.03,ESE,106,2.0,5.0,85,0.00,OVC,OVC,0.00,0.0,WeatherDisplay:10.37,2013-04-19 06:42:00,
2013-04-19 02:47:00,52.1,48.0,30.03,ESE,103,1.0,6.0,86,0.00,OVC,OVC,0.00,0.0,WeatherDisplay:10.37,2013-04-19 06:47:00,
2013-04-19 02:52:00,52.2,48.1,30.03,ESE,105,1.0,5.0,86,0.00,OVC,OVC,0.00,0.0,WeatherDisplay:10.37,2013-04-19 06:52:00,
2013-04-19 02:57:00,52.2,48.1,30.03,SSE,151,0.0,4.0,86,0.00,OVC,OVC,0.00,0.0,WeatherDisplay:10.37,2013-04-19 06:57:00,
2013-04-19 03:02:00,52.2,48.4,30.03,South,179,0.0,1.0,87,0.00,OVC,OVC,0.00,0.0,WeatherDisplay:10.37,2013-04-19 07:02:00,
2013-04-19 03:07:00,52.2,48.4,30.03,SSE,159,0.0,4.0,87,0.00,OVC,OVC,0.00,0.0,WeatherDisplay:10.37,2013-04-19 07:07:00,
2013-04-19 03:12:00,52.3,48.5,30.03,SSE,152,0.0,4.0,87,0.00,OVC,OVC,0.00,0.0,WeatherDisplay:10.37,2013-04-19 07:12:00,
2013-04-19 03:17:00,52.4,48.9,30.03,SE,140,0.0,1.0,88,0.00,OVC,OVC,0.00,0.0,WeatherDisplay:10.37,2013-04-19 07:17:00,
2013-04-19 03:22:00,52.4,48.9,30.03,South,180,0.0,4.0,88,0.00,OVC,OVC,0.00,0.0,WeatherDisplay:10.37,2013-04-19 07:22:00,
2013-04-19 03:27:00,52.4,49.0,30.03,SW,222,0.0,2.0,88,0.00,OVC,OVC,0.00,0.0,WeatherDisplay:10.37,2013-04-19 07:27:00,
2013-04-19 03:32:00,52.5,49.0,30.03,SW,223,0.0,0.0,88,0.00,OVC,OVC,0.00,0.0,WeatherDisplay:10.37,2013-04-19 07:32:00,
2013-04-19 03:37:00,52.5,49.0,30.03,SW,223,0.0,2.0,88,0.00,OVC,OVC,0.00,0.0,WeatherDisplay:10.37,2013-04-19 07:37:00,
2013-04-19 03:42:00,52.6,49.4,30.02,SW,223,0.0,0.0,89,0.00,OVC,OVC,0.00,0.0,WeatherDisplay:10.37,2013-04-19 07:42:00,
2013-04-19 03:47:00,52.6,49.4,30.02,SW,223,0.0,0.0,89,0.00,OVC,OVC,0.00,0.0,WeatherDisplay:10.37,2013-04-19 07:47:00,
2013-04-19 03:52:00,52.6,49.4,30.02,SW,223,0.0,0.0,89,0.00,OVC,OVC,0.00,0.0,WeatherDisplay:10.37,2013-04-19 07:52:00,
2013-04-19 03:57:00,52.6,49.4,30.02,SW,223,0.0,0.0,89,0.00,OVC,OVC,0.00,0.0,WeatherDisplay:10.37,2013-04-19 07:57:00,
2013-04-19 04:02:00,52.6,49.4,30.02,SW,223,0.0,0.0,89,0.00,OVC,OVC,0.00,0.0,WeatherDisplay:10.37,2013-04-19 08:02:00,
2013-04-19 04:07:00,52.7,49.5,30.02,SW,223,0.0,0.0,89,0.00,OVC,OVC,0.00,0.0,WeatherDisplay:10.37,2013-04-19 08:07:00,
2013-04-19 04:12:00,52.7,49.5,30.02,SW,223,0.0,1.0,89,0.00,OVC,OVC,0.00,0.0,WeatherDisplay:10.37,2013-04-19 08:12:00,
2013-04-19 04:17:00,52.7,49.5,30.02,SW,223,0.0,2.0,89,0.00,OVC,OVC,0.00,0.0,WeatherDisplay:10.37,2013-04-19 08:17:00,
2013-04-19 04:22:00,52.7,49.8,30.02,SW,223,0.0,4.0,90,0.00,OVC,OVC,0.00,0.0,WeatherDisplay:10.37,2013-04-19 08:22:00,
2013-04-19 04:37:00,52.8,49.9,30.01,SW,223,0.0,2.0,90,0.00,OVC,OVC,0.00,0.0,WeatherDisplay:10.37,2013-04-19 08:37:00,
2013-04-19 04:47:00,52.8,50.2,30.01,SE,126,0.0,2.0,91,0.00,OVC,OVC,0.00,0.0,WeatherDisplay:10.37,2013-04-19 08:47:00,
2013-04-19 04:52:00,52.8,50.2,30.00,ESE,118,0.0,3.0,91,0.00,OVC,OVC,0.00,0.0,WeatherDisplay:10.37,2013-04-19 08:52:00,
2013-04-19 04:57:00,52.8,50.2,30.00,ESE,103,0.0,0.0,91,0.00,OVC,OVC,0.00,0.0,WeatherDisplay:10.37,2013-04-19 08:57:00,
2013-04-19 05:02:00,52.8,50.3,30.00,East,99,0.0,1.0,91,0.00,OVC,OVC,0.00,0.0,WeatherDisplay:10.37,2013-04-19 09:02:00,
2013-04-19 05:07:00,52.8,50.5,30.00,East,99,0.0,0.0,92,0.00,OVC,OVC,0.00,0.0,WeatherDisplay:10.37,2013-04-19 09:07:00,
2013-04-19 05:12:00,52.8,50.5,29.99,East,99,1.0,3.0,92,0.00,OVC,OVC,0.00,0.0,WeatherDisplay:10.37,2013-04-19 09:12:00,
2013-04-19 05:17:00,52.9,50.6,30.00,East,99,0.0,2.0,92,0.00,OVC,OVC,0.00,0.0,WeatherDisplay:10.37,2013-04-19 09:17:00,
2013-04-19 05:22:00,52.9,50.6,29.99,East,99,0.0,0.0,92,0.00,OVC,OVC,0.00,0.0,WeatherDisplay:10.37,2013-04-19 09:22:00,
2013-04-19 05:27:00,52.9,50.6,29.99,ESE,102,2.0,3.0,92,0.00,OVC,OVC,0.00,0.0,WeatherDisplay:10.37,2013-04-19 09:27:00,
2013-04-19 05:32:00,52.9,50.6,29.98,ESE,104,0.0,0.0,92,0.00,OVC,OVC,0.00,0.0,WeatherDisplay:10.37,2013-04-19 09:32:00,
2013-04-19 05:37:00,52.9,50.9,29.97,ESE,104,2.0,4.0,93,0.00,OVC,OVC,0.00,0.0,WeatherDisplay:10.37,2013-04-19 09:37:00,
2013-04-19 05:42:00,53.0,51.0,29.96,ESE,104,2.0,3.0,93,0.00,OVC,OVC,0.00,0.0,WeatherDisplay:10.37,2013-04-19 09:42:00,
2013-04-19 05:47:00,53.0,51.0,29.96,East,101,0.0,5.0,93,0.00,OVC,OVC,0.00,0.0,WeatherDisplay:10.37,2013-04-19 09:47:00,
2013-04-19 05:52:00,53.0,51.0,29.96,ESE,120,0.0,5.0,93,0.00,OVC,OVC,0.00,0.0,WeatherDisplay:10.37,2013-04-19 09:52:00,
2013-04-19 05:57:00,53.1,51.1,29.97,SE,142,1.0,3.0,93,0.00,OVC,OVC,0.00,0.0,WeatherDisplay:10.37,2013-04-19 09:57:00,
2013-04-19 06:02:00,53.2,51.2,29.97,ESE,114,0.0,1.0,93,0.00,OVC,OVC,0.00,0.0,WeatherDisplay:10.37,2013-04-19 10:02:00,
2013-04-19 06:07:00,53.3,51.3,29.97,SE,132,0.0,3.0,93,0.00,OVC,OVC,0.00,0.0,WeatherDisplay:10.37,2013-04-19 10:07:00,
2013-04-19 06:12:00,53.4,51.7,29.97,SSE,163,0.0,2.0,94,0.00,OVC,OVC,0.00,0.0,WeatherDisplay:10.37,2013-04-19 10:12:00,
2013-04-19 06:17:00,53.5,51.8,29.97,SE,137,0.0,0.0,94,0.00,OVC,OVC,0.00,9.0,WeatherDisplay:10.37,2013-04-19 10:17:00,
2013-04-19 06:22:00,53.6,51.9,29.98,SE,137,0.0,3.0,94,0.00,OVC,OVC,0.00,11.0,WeatherDisplay:10.37,2013-04-19 10:22:00,
2013-04-19 06:27:00,53.7,52.0,29.98,SSE,167,1.0,5.0,94,0.00,OVC,OVC,0.00,9.0,WeatherDisplay:10.37,2013-04-19 10:27:00,
2013-04-19 06:32:00,53.9,52.2,29.98,SSW,201,0.0,0.0,94,0.00,OVC,OVC,0.00,9.0,WeatherDisplay:10.37,2013-04-19 10:32:00,
2013-04-19 06:37:00,54.0,52.3,29.98,South,187,1.0,3.0,94,0.00,OVC,OVC,0.00,11.0,WeatherDisplay:10.37,2013-04-19 10:37:00,
2013-04-19 06:42:00,54.0,52.3,29.98,SE,145,0.0,2.0,94,0.00,OVC,OVC,0.00,18.0,WeatherDisplay:10.37,2013-04-19 10:42:00,
2013-04-19 06:47:00,54.1,52.4,29.98,SE,129,0.0,2.0,94,0.00,OVC,OVC,0.00,25.0,WeatherDisplay:10.37,2013-04-19 10:47:00,
2013-04-19 06:52:00,54.1,52.4,29.98,ESE,117,0.0,3.0,94,0.00,OVC,OVC,0.00,28.0,WeatherDisplay:10.37,2013-04-19 10:52:00,
2013-04-19 06:57:00,54.2,52.5,29.98,SE,129,2.0,7.0,94,0.00,OVC,OVC,0.00,23.0,WeatherDisplay:10.37,2013-04-19 10:57:00,
2013-04-19 07:02:00,54.3,52.6,29.98,ESE,123,0.0,2.0,94,0.00,OVC,OVC,0.00,11.0,WeatherDisplay:10.37,2013-04-19 11:02:00,
2013-04-19 07:07:00,54.4,52.7,29.97,ESE,118,0.0,1.0,94,0.00,OVC,OVC,0.00,30.0,WeatherDisplay:10.37,2013-04-19 11:07:00,
2013-04-19 07:12:00,54.5,52.8,29.98,SSE,153,1.0,4.0,94,0.00,OVC,OVC,0.00,51.0,WeatherDisplay:10.37,2013-04-19 11:12:00,
2013-04-19 07:17:00,54.6,52.9,29.97,SSE,149,1.0,4.0,94,0.00,OVC,OVC,0.00,74.0,WeatherDisplay:10.37,2013-04-19 11:17:00,
2013-04-19 07:22:00,54.8,53.1,29.97,SE,143,1.0,2.0,94,0.00,OVC,OVC,0.00,84.0,WeatherDisplay:10.37,2013-04-19 11:22:00,
2013-04-19 07:27:00,55.1,53.7,29.97,SE,142,0.0,4.0,95,0.00,OVC,OVC,0.00,86.0,WeatherDisplay:10.37,2013-04-19 11:27:00,
2013-04-19 07:32:00,55.5,54.1,29.97,SE,142,1.0,7.0,95,0.00,OVC,OVC,0.00,77.0,WeatherDisplay:10.37,2013-04-19 11:32:00,
2013-04-19 07:37:00,55.8,54.4,29.97,SSE,154,2.0,4.0,95,0.00,OVC,OVC,0.00,72.0,WeatherDisplay:10.37,2013-04-19 11:37:00,
2013-04-19 07:42:00,56.0,54.6,29.97,SSE,153,0.0,4.0,95,0.00,OVC,OVC,0.00,74.0,WeatherDisplay:10.37,2013-04-19 11:42:00,
2013-04-19 07:47:00,56.3,54.9,29.98,SSE,162,2.0,4.0,95,0.00,OVC,OVC,0.00,70.0,WeatherDisplay:10.37,2013-04-19 11:47:00,
2013-04-19 07:52:00,56.5,55.1,29.97,SSE,161,1.0,6.0,95,0.00,OVC,OVC,0.00,97.0,WeatherDisplay:10.37,2013-04-19 11:52:00,
2013-04-19 07:57:00,56.8,55.4,29.97,South,188,1.0,5.0,95,0.00,OVC,OVC,0.00,167.0,WeatherDisplay:10.37,2013-04-19 11:57:00,
2013-04-19 08:02:00,57.1,55.7,29.96,SE,142,0.0,2.0,95,0.00,OVC,OVC,0.00,160.0,WeatherDisplay:10.37,2013-04-19 12:02:00,
2013-04-19 08:07:00,57.4,56.0,29.96,SSE,147,1.0,4.0,95,0.00,OVC,OVC,0.00,148.0,WeatherDisplay:10.37,2013-04-19 12:07:00,
2013-04-19 08:12:00,57.7,56.3,29.96,SSE,163,1.0,4.0,95,0.00,OVC,OVC,0.00,172.0,WeatherDisplay:10.37,2013-04-19 12:12:00,
2013-04-19 08:17:00,58.2,56.5,29.95,South,181,2.0,4.0,94,0.00,BKN,BKN,0.00,262.0,WeatherDisplay:10.37,2013-04-19 12:17:00,
2013-04-19 08:22:00,59.0,57.2,29.96,SSW,196,0.0,5.0,94,0.00,OVC,OVC,0.00,213.0,WeatherDisplay:10.37,2013-04-19 12:22:00,
2013-04-19 08:27:00,59.1,57.1,29.96,SW,216,0.0,5.0,93,0.00,OVC,OVC,0.00,171.0,WeatherDisplay:10.37,2013-04-19 12:27:00,
2013-04-19 08:32:00,59.7,57.3,29.95,South,188,1.0,7.0,92,0.00,OVC,OVC,0.00,190.0,WeatherDisplay:10.37,2013-04-19 12:32:00,
2013-04-19 08:37:00,60.1,57.5,29.96,SSE,165,2.0,10.0,91,0.00,OVC,OVC,0.00,167.0,WeatherDisplay:10.37,2013-04-19 12:37:00,
2013-04-19 08:42:00,60.7,57.4,29.96,South,187,3.0,10.0,89,0.00,BKN,BKN,0.00,336.0,WeatherDisplay:10.37,2013-04-19 12:42:00,
2013-04-19 08:47:00,61.2,57.6,29.96,South,181,2.0,10.0,88,0.00,OVC,OVC,0.00,125.0,WeatherDisplay:10.37,2013-04-19 12:47:00,
2013-04-19 08:52:00,61.5,57.6,29.96,SSW,212,0.0,10.0,87,0.00,OVC,OVC,0.00,86.0,WeatherDisplay:10.37,2013-04-19 12:52:00,
2013-04-19 08:57:00,61.7,57.5,29.95,SSW,194,1.0,6.0,86,0.00,OVC,OVC,0.00,105.0,WeatherDisplay:10.37,2013-04-19 12:57:00,
2013-04-19 09:02:00,61.8,57.6,29.95,South,169,1.0,7.0,86,0.00,OVC,OVC,0.00,139.0,WeatherDisplay:10.37,2013-04-19 13:02:00,
2013-04-19 09:07:00,61.9,57.4,29.96,SSE,162,2.0,7.0,85,0.00,OVC,OVC,0.00,130.0,WeatherDisplay:10.37,2013-04-19 13:07:00,
2013-04-19 09:12:00,62.0,57.4,29.96,South,176,0.0,8.0,85,0.00,OVC,OVC,0.00,148.0,WeatherDisplay:10.37,2013-04-19 13:12:00,
2013-04-19 09:17:00,62.2,57.6,29.95,SSE,150,1.0,8.0,85,0.00,OVC,OVC,0.00,165.0,WeatherDisplay:10.37,2013-04-19 13:17:00,
2013-04-19 09:22:00,62.4,57.8,29.95,South,182,2.0,9.0,85,0.00,OVC,OVC,0.00,209.0,WeatherDisplay:10.37,2013-04-19 13:22:00,
2013-04-19 09:27:00,62.7,57.8,29.95,SSW,197,1.0,8.0,84,0.00,OVC,OVC,0.00,236.0,WeatherDisplay:10.37,2013-04-19 13:27:00,
2013-04-19 09:32:00,63.2,58.3,29.94,SSE,166,1.0,4.0,84,0.00,OVC,OVC,0.00,199.0,WeatherDisplay:10.37,2013-04-19 13:32:00,
2013-04-19 09:37:00,63.7,58.4,29.94,SSE,151,3.0,7.0,83,0.00,OVC,OVC,0.00,290.0,WeatherDisplay:10.37,2013-04-19 13:37:00,
2013-04-19 09:52:00,66.4,59.7,29.93,SSW,192,2.0,7.0,79,0.00,OVC,OVC,0.00,308.0,WeatherDisplay:10.37,2013-04-19 13:52:00,
2013-04-19 09:57:00,67.3,59.5,29.92,SSE,153,6.0,13.0,76,0.00,OVC,OVC,0.00,339.0,WeatherDisplay:10.37,2013-04-19 13:57:00,
2013-04-19 10:02:00,68.0,59.4,29.93,SSE,149,5.0,10.0,74,0.00,CLR,CLR,0.00,717.0,WeatherDisplay:10.37,2013-04-19 14:02:00,
2013-04-19 10:07:00,68.1,59.1,29.92,SSE,168,3.0,17.0,73,0.00,CLR,CLR,0.00,0.0,WeatherDisplay:10.37,2013-04-19 14:07:00,
2013-04-19 10:12:00,68.0,59.0,29.92,SSE,161,3.0,12.0,73,0.00,CLR,CLR,0.00,712.0,WeatherDisplay:10.37,2013-04-19 14:12:00,
2013-04-19 10:17:00,68.3,59.3,29.92,SSE,156,5.0,10.0,73,0.00,CLR,CLR,0.00,308.0,WeatherDisplay:10.37,2013-04-19 14:17:00,
2013-04-19 10:22:00,68.3,59.3,29.92,SSE,168,1.0,12.0,73,0.00,CLR,CLR,0.00,0.0,WeatherDisplay:10.37,2013-04-19 14:22:00,
2013-04-19 10:27:00,68.3,58.9,29.92,SSE,159,1.0,13.0,72,0.00,CLR,CLR,0.00,304.0,WeatherDisplay:10.37,2013-04-19 14:27:00,
2013-04-19 10:32:00,68.1,58.7,29.92,SE,144,1.0,10.0,72,0.00,CLR,CLR,0.00,401.0,WeatherDisplay:10.37,2013-04-19 14:32:00,
2013-04-19 10:37:00,68.0,59.4,29.92,SSE,167,2.0,12.0,74,0.00,CLR,CLR,0.00,0.0,WeatherDisplay:10.37,2013-04-19 14:37:00,
2013-04-19 10:42:00,68.0,59.0,29.92,South,190,1.0,12.0,73,0.00,CLR,CLR,0.00,0.0,WeatherDisplay:10.37,2013-04-19 14:42:00,
2013-04-19 10:47:00,68.2,59.2,29.92,SSW,209,3.0,12.0,73,0.00,CLR,CLR,0.00,0.0,WeatherDisplay:10.37,2013-04-19 14:47:00,
2013-04-19 10:52:00,68.4,59.4,29.91,SSW,212,2.0,13.0,73,0.00,CLR,CLR,0.00,0.0,WeatherDisplay:10.37,2013-04-19 14:52:00,
2013-04-19 11:07:00,69.0,58.8,29.91,WSW,256,2.0,13.0,70,0.00,CLR,CLR,0.00,322.0,WeatherDisplay:10.37,2013-04-19 15:07:00,
2013-04-19 11:12:00,69.2,59.4,29.91,West,260,0.0,7.0,71,0.00,CLR,CLR,0.00,234.0,WeatherDisplay:10.37,2013-04-19 15:12:00,
2013-04-19 11:17:00,69.6,59.8,29.91,SE,144,5.0,9.0,71,0.00,CLR,CLR,0.00,209.0,WeatherDisplay:10.37,2013-04-19 15:17:00,
2013-04-19 11:22:00,69.5,59.3,29.90,SSW,205,0.0,15.0,70,0.00,CLR,CLR,0.00,323.0,WeatherDisplay:10.37,2013-04-19 15:22:00,
2013-04-19 11:27:00,69.5,59.7,29.90,SW,218,3.0,12.0,71,0.00,CLR,CLR,0.00,374.0,WeatherDisplay:10.37,2013-04-19 15:27:00,
2013-04-19 11:32:00,69.8,60.4,29.89,South,184,2.0,10.0,72,0.00,CLR,CLR,0.00,0.0,WeatherDisplay:10.37,2013-04-19 15:32:00,
2013-04-19 11:37:00,70.7,60.0,29.89,SSW,201,6.0,14.0,69,0.00,CLR,CLR,0.00,933.0,WeatherDisplay:10.37,2013-04-19 15:37:00,
2013-04-19 11:42:00,70.9,59.8,29.89,SSW,198,6.0,12.0,68,0.00,CLR,CLR,0.00,789.0,WeatherDisplay:10.37,2013-04-19 15:42:00,
2013-04-19 11:47:00,71.1,59.6,29.88,SSW,198,6.0,13.0,67,0.00,CLR,CLR,0.00,265.0,WeatherDisplay:10.37,2013-04-19 15:47:00,
2013-04-19 11:52:00,70.4,59.4,29.88,SSW,208,3.0,16.0,68,0.00,CLR,CLR,0.00,243.0,WeatherDisplay:10.37,2013-04-19 15:52:00,
2013-04-19 11:57:00,70.3,59.6,29.88,SSW,203,3.0,9.0,69,0.00,CLR,CLR,0.00,353.0,WeatherDisplay:10.37,2013-04-19 15:57:00,
2013-04-19 12:02:00,70.7,59.6,29.88,SW,218,3.0,18.0,68,0.00,CLR,CLR,0.00,323.0,WeatherDisplay:10.37,2013-04-19 16:02:00,
2013-04-19 12:07:00,70.7,59.6,29.87,South,182,3.0,12.0,68,0.00,CLR,CLR,0.00,230.0,WeatherDisplay:10.37,2013-04-19 16:07:00,
2013-04-19 12:12:00,70.5,59.4,29.87,SSE,162,1.0,12.0,68,0.00,CLR,CLR,0.00,260.0,WeatherDisplay:10.37,2013-04-19 16:12:00,
2013-04-19 12:17:00,70.7,59.6,29.87,WSW,249,6.0,14.0,68,0.00,CLR,CLR,0.00,0.0,WeatherDisplay:10.37,2013-04-19 16:17:00,
2013-04-19 12:22:00,70.6,59.5,29.87,South,172,2.0,10.0,68,0.00,CLR,CLR,0.00,285.0,WeatherDisplay:10.37,2013-04-19 16:22:00,
2013-04-19 12:27:00,70.8,59.7,29.87,South,171,5.0,12.0,68,0.00,CLR,CLR,0.00,668.0,WeatherDisplay:10.37,2013-04-19 16:27:00,
2013-04-19 12:32:00,70.8,59.7,29.87,South,184,2.0,12.0,68,0.00,CLR,CLR,0.00,0.0,WeatherDisplay:10.37,2013-04-19 16:32:00,
2013-04-19 12:37:00,71.3,59.8,29.86,SSE,159,3.0,10.0,67,0.00,CLR,CLR,0.00,308.0,WeatherDisplay:10.37,2013-04-19 16:37:00,
2013-04-19 12:42:00,71.3,59.8,29.86,SSE,155,1.0,10.0,67,0.00,CLR,CLR,0.00,346.0,WeatherDisplay:10.37,2013-04-19 16:42:00,
2013-04-19 12:47:00,71.7,59.7,29.85,SSE,154,3.0,14.0,66,0.00,CLR,CLR,0.00,0.0,WeatherDisplay:10.37,2013-04-19 16:47:00,
2013-04-19 12:52:00,71.5,59.5,29.85,South,170,0.0,12.0,66,0.00,CLR,CLR,0.00,332.0,WeatherDisplay:10.37,2013-04-19 16:52:00,
2013-04-19 12:57:00,71.7,59.7,29.84,South,175,5.0,12.0,66,0.00,CLR,CLR,0.00,0.0,WeatherDisplay:10.37,2013-04-19 16:57:00,
2013-04-19 13:02:00,71.8,59.8,29.84,SSE,157,3.0,12.0,66,0.00,CLR,CLR,0.00,759.0,WeatherDisplay:10.37,2013-04-19 17:02:00,
2013-04-19 13:12:00,73.6,60.2,29.85,South,169,5.0,12.0,63,0.00,CLR,CLR,0.00,772.0,WeatherDisplay:10.37,2013-04-19 17:12:00,
2013-04-19 13:17:00,73.6,60.2,29.85,South,180,1.0,17.0,63,0.00,CLR,CLR,0.00,615.0,WeatherDisplay:10.37,2013-04-19 17:17:00,
2013-04-19 13:22:00,73.3,59.5,29.84,South,185,9.0,20.0,62,0.00,CLR,CLR,0.00,0.0,WeatherDisplay:10.37,2013-04-19 17:22:00,
2013-04-19 13:27:00,73.5,59.7,29.83,SSW,195,8.0,14.0,62,0.00,CLR,CLR,0.00,598.0,WeatherDisplay:10.37,2013-04-19 17:27:00,
2013-04-19 13:32:00,73.6,59.7,29.83,SW,223,5.0,12.0,62,0.00,CLR,CLR,0.00,1027.0,WeatherDisplay:10.37,2013-04-19 17:32:00,
2013-04-19 13:37:00,73.8,60.5,29.82,SSW,207,1.0,18.0,63,0.00,CLR,CLR,0.00,276.0,WeatherDisplay:10.37,2013-04-19 17:37:00,
2013-04-19 13:42:00,74.2,60.3,29.82,South,187,2.0,17.0,62,0.00,CLR,CLR,0.00,0.0,WeatherDisplay:10.37,2013-04-19 17:42:00,
2013-04-19 13:47:00,74.4,60.5,29.82,SSW,192,2.0,13.0,62,0.00,CLR,CLR,0.00,888.0,WeatherDisplay:10.37,2013-04-19 17:47:00,
2013-04-19 13:52:00,74.0,59.7,29.82,SSW,203,2.0,12.0,61,0.00,CLR,CLR,0.00,0.0,WeatherDisplay:10.37,2013-04-19 17:52:00,
2013-04-19 13:57:00,73.6,59.7,29.82,SW,214,2.0,9.0,62,0.00,CLR,CLR,0.00,167.0,WeatherDisplay:10.37,2013-04-19 17:57:00,
2013-04-19 14:02:00,73.2,59.4,29.81,SSW,192,3.0,13.0,62,0.00,CLR,CLR,0.00,288.0,WeatherDisplay:10.37,2013-04-19 18:02:00,
2013-04-19 14:07:00,73.7,60.3,29.80,SSW,194,2.0,9.0,63,0.00,CLR,CLR,0.00,601.0,WeatherDisplay:10.37,2013-04-19 18:07:00,
2013-04-19 14:12:00,74.2,59.9,29.79,SSE,149,3.0,12.0,61,0.00,CLR,CLR,0.00,0.0,WeatherDisplay:10.37,2013-04-19 18:12:00,
2013-04-19 14:17:00,74.6,60.3,29.79,South,173,2.0,14.0,61,0.00,CLR,CLR,0.00,650.0,WeatherDisplay:10.37,2013-04-19 18:17:00,
2013-04-19 14:22:00,74.6,59.8,29.79,SSW,199,8.0,21.0,60,0.00,CLR,CLR,0.00,327.0,WeatherDisplay:10.37,2013-04-19 18:22:00,
2013-04-19 14:27:00,74.4,59.6,29.79,SSW,202,7.0,16.0,60,0.00,CLR,CLR,0.00,0.0,WeatherDisplay:10.37,2013-04-19 18:27:00,
2013-04-19 14:32:00,74.4,60.1,29.79,SW,214,1.0,12.0,61,0.00,CLR,CLR,0.00,211.0,WeatherDisplay:10.37,2013-04-19 18:32:00,
2013-04-19 14:37:00,74.4,59.6,29.79,South,181,5.0,12.0,60,0.00,CLR,CLR,0.00,0.0,WeatherDisplay:10.37,2013-04-19 18:37:00,
2013-04-19 14:42:00,74.1,59.3,29.79,SSE,158,1.0,17.0,60,0.00,CLR,CLR,0.00,0.0,WeatherDisplay:10.37,2013-04-19 18:42:00,
2013-04-19 14:47:00,74.4,60.9,29.78,SSE,147,1.0,8.0,63,0.00,CLR,CLR,0.00,0.0,WeatherDisplay:10.37,2013-04-19 18:47:00,
2013-04-19 14:52:00,74.7,60.4,29.78,SSE,155,1.0,10.0,61,0.00,CLR,CLR,0.00,315.0,WeatherDisplay:10.37,2013-04-19 18:52:00,
2013-04-19 14:57:00,74.6,60.3,29.78,SSW,209,5.0,12.0,61,0.00,CLR,CLR,0.00,0.0,WeatherDisplay:10.37,2013-04-19 18:57:00,
2013-04-19 15:02:00,74.4,60.5,29.77,SSW,209,3.0,9.0,62,0.00,CLR,CLR,0.00,76.0,WeatherDisplay:10.37,2013-04-19 19:02:00,
2013-04-19 15:07:00,74.0,60.2,29.77,South,182,5.0,15.0,62,0.00,CLR,CLR,0.00,0.0,WeatherDisplay:10.37,2013-04-19 19:07:00,
2013-04-19 15:12:00,73.5,60.1,29.77,South,175,7.0,14.0,63,0.00,CLR,CLR,0.00,195.0,WeatherDisplay:10.37,2013-04-19 19:12:00,
2013-04-19 15:22:00,73.1,60.2,29.77,South,179,3.0,16.0,64,0.00,CLR,CLR,0.00,0.0,WeatherDisplay:10.37,2013-04-19 19:22:00,
2013-04-19 15:27:00,73.2,59.8,29.76,SSE,162,3.0,13.0,63,0.00,CLR,CLR,0.00,137.0,WeatherDisplay:10.37,2013-04-19 19:27:00,
2013-04-19 15:32:00,73.1,60.2,29.76,South,176,5.0,12.0,64,0.00,CLR,CLR,0.00,0.0,WeatherDisplay:10.37,2013-04-19 19:32:00,
2013-04-19 15:37:00,73.0,60.1,29.76,SSW,200,3.0,12.0,64,0.00,CLR,CLR,0.00,165.0,WeatherDisplay:10.37,2013-04-19 19:37:00,
2013-04-19 15:42:00,72.9,60.0,29.76,South,188,5.0,10.0,64,0.00,CLR,CLR,0.00,79.0,WeatherDisplay:10.37,2013-04-19 19:42:00,
2013-04-19 15:47:00,72.6,60.6,29.76,South,181,5.0,22.0,66,0.00,CLR,CLR,0.00,63.0,WeatherDisplay:10.37,2013-04-19 19:47:00,
2013-04-19 15:52:00,72.1,60.6,29.76,South,183,3.0,15.0,67,0.00,CLR,CLR,0.00,0.0,WeatherDisplay:10.37,2013-04-19 19:52:00,
2013-04-19 15:57:00,71.9,60.3,29.76,SSW,197,1.0,15.0,67,0.00,CLR,CLR,0.00,83.0,WeatherDisplay:10.37,2013-04-19 19:57:00,
2013-04-19 16:02:00,71.6,60.5,29.76,South,188,5.0,12.0,68,0.00,CLR,CLR,0.00,0.0,WeatherDisplay:10.37,2013-04-19 20:02:00,
2013-04-19 16:07:00,71.3,61.4,29.76,SSW,194,6.0,15.0,71,0.00,CLR,CLR,0.00,0.0,WeatherDisplay:10.37,2013-04-19 20:07:00,
2013-04-19 16:12:00,70.9,61.4,29.76,SSW,200,2.0,14.0,72,0.00,CLR,CLR,0.00,0.0,WeatherDisplay:10.37,2013-04-19 20:12:00,
2013-04-19 16:17:00,70.5,61.4,29.75,South,180,5.0,14.0,73,0.00,CLR,CLR,0.00,0.0,WeatherDisplay:10.37,2013-04-19 20:17:00,
2013-04-19 16:22:00,70.3,61.6,29.75,South,180,3.0,12.0,74,0.00,CLR,CLR,0.00,0.0,WeatherDisplay:10.37,2013-04-19 20:22:00,
2013-04-19 16:27:00,70.3,61.6,29.75,SSE,166,1.0,7.0,74,0.00,CLR,CLR,0.00,0.0,WeatherDisplay:10.37,2013-04-19 20:27:00,
2013-04-19 16:32:00,70.2,61.5,29.75,SSE,165,0.0,12.0,74,0.00,CLR,CLR,0.00,0.0,WeatherDisplay:10.37,2013-04-19 20:32:00,
2013-04-19 16:37:00,70.1,61.8,29.75,South,184,2.0,12.0,75,0.00,CLR,CLR,0.00,0.0,WeatherDisplay:10.37,2013-04-19 20:37:00,
2013-04-19 16:42:00,69.9,62.0,29.74,South,170,1.0,12.0,76,0.00,CLR,CLR,0.00,0.0,WeatherDisplay:10.37,2013-04-19 20:42:00,
2013-04-19 16:47:00,69.5,61.9,29.74,SSE,165,5.0,12.0,77,0.00,CLR,CLR,0.00,0.0,WeatherDisplay:10.37,2013-04-19 20:47:00,
2013-04-19 16:52:00,69.0,62.2,29.74,South,172,2.0,9.0,79,0.00,CLR,CLR,0.00,0.0,WeatherDisplay:10.37,2013-04-19 20:52:00,
2013-04-19 16:57:00,68.7,61.9,29.74,SSW,195,0.0,4.0,79,0.00,CLR,CLR,0.00,0.0,WeatherDisplay:10.37,2013-04-19 20:57:00,
2013-04-19 17:02:00,68.6,61.8,29.74,SSE,164,3.0,12.0,79,0.00,CLR,CLR,0.00,0.0,WeatherDisplay:10.37,2013-04-19 21:02:00,
2013-04-19 17:07:00,68.5,61.7,29.74,SSE,156,3.0,8.0,79,0.00,CLR,CLR,0.00,0.0,WeatherDisplay:10.37,2013-04-19 21:07:00,
2013-04-19 17:12:00,68.5,62.1,29.74,South,182,1.0,5.0,80,0.00,CLR,CLR,0.00,0.0,WeatherDisplay:10.37,2013-04-19 21:12:00,
2013-04-19 17:17:00,68.5,62.1,29.74,SSW,197,2.0,7.0,80,0.00,CLR,CLR,0.00,0.0,WeatherDisplay:10.37,2013-04-19 21:17:00,
2013-04-19 17:22:00,68.5,62.1,29.73,South,184,1.0,13.0,80,0.00,CLR,CLR,0.00,0.0,WeatherDisplay:10.37,2013-04-19 21:22:00,
2013-04-19 17:27:00,68.5,62.1,29.72,SSE,157,0.0,12.0,80,0.00,CLR,CLR,0.00,0.0,WeatherDisplay:10.37,2013-04-19 21:27:00,
2013-04-19 17:32:00,68.4,62.0,29.72,SE,145,3.0,10.0,80,0.00,CLR,CLR,0.00,39.0,WeatherDisplay:10.37,2013-04-19 21:32:00,
2013-04-19 17:37:00,68.4,62.0,29.72,South,174,1.0,6.0,80,0.00,CLR,CLR,0.00,0.0,WeatherDisplay:10.37,2013-04-19 21:37:00,
2013-04-19 17:42:00,68.3,61.9,29.72,SSW,197,1.0,9.0,80,0.00,CLR,CLR,0.00,0.0,WeatherDisplay:10.37,2013-04-19 21:42:00,
2013-04-19 17:47:00,68.2,62.1,29.72,SSW,204,3.0,12.0,81,0.00,CLR,CLR,0.00,0.0,WeatherDisplay:10.37,2013-04-19 21:47:00,
2013-04-19 17:52:00,68.1,62.0,29.71,South,173,2.0,7.0,81,0.00,CLR,CLR,0.00,0.0,WeatherDisplay:10.37,2013-04-19 21:52:00,
2013-04-19 18:02:00,68.0,61.9,29.70,SE,130,1.0,10.0,81,0.00,CLR,CLR,0.00,0.0,WeatherDisplay:10.37,2013-04-19 22:02:00,
2013-04-19 18:07:00,67.9,61.9,29.69,South,171,2.0,15.0,81,0.00,CLR,CLR,0.00,28.0,WeatherDisplay:10.37,2013-04-19 22:07:00,
2013-04-19 18:12:00,67.9,62.2,29.69,South,182,2.0,9.0,82,0.00,CLR,CLR,0.00,0.0,WeatherDisplay:10.37,2013-04-19 22:12:00,
2013-04-19 18:17:00,67.9,62.2,29.69,South,173,1.0,6.0,82,0.00,CLR,CLR,0.00,0.0,WeatherDisplay:10.37,2013-04-19 22:17:00,
2013-04-19 18:22:00,67.8,62.1,29.69,SSE,168,2.0,6.0,82,0.00,CLR,CLR,0.00,0.0,WeatherDisplay:10.37,2013-04-19 22:22:00,
2013-04-19 18:27:00,67.8,62.1,29.69,SSE,154,0.0,7.0,82,0.00,CLR,CLR,0.00,0.0,WeatherDisplay:10.37,2013-04-19 22:27:00,
2013-04-19 18:32:00,67.8,62.4,29.68,SSE,160,1.0,10.0,83,0.00,CLR,CLR,0.00,0.0,WeatherDisplay:10.37,2013-04-19 22:32:00,
2013-04-19 18:37:00,67.7,62.3,29.69,SSE,150,5.0,10.0,83,0.00,CLR,CLR,0.00,0.0,WeatherDisplay:10.37,2013-04-19 22:37:00,
2013-04-19 18:42:00,67.6,62.3,29.69,SSE,164,1.0,7.0,83,0.00,CLR,CLR,0.00,0.0,WeatherDisplay:10.37,2013-04-19 22:42:00,
2013-04-19 18:47:00,67.5,62.2,29.69,SSE,159,1.0,6.0,83,0.00,CLR,CLR,0.00,0.0,WeatherDisplay:10.37,2013-04-19 22:47:00,
2013-04-19 18:52:00,67.4,62.1,29.69,South,171,2.0,16.0,83,0.00,CLR,CLR,0.00,0.0,WeatherDisplay:10.37,2013-04-19 22:52:00,
2013-04-19 18:57:00,67.4,62.1,29.69,SSE,164,2.0,12.0,83,0.00,CLR,CLR,0.00,0.0,WeatherDisplay:10.37,2013-04-19 22:57:00,
2013-04-19 19:02:00,67.3,62.0,29.68,SE,143,3.0,12.0,83,0.00,CLR,CLR,0.00,0.0,WeatherDisplay:10.37,2013-04-19 23:02:00,
2013-04-19 19:07:00,67.1,61.8,29.68,SSE,155,6.0,12.0,83,0.00,CLR,CLR,0.00,0.0,WeatherDisplay:10.37,2013-04-19 23:07:00,
2013-04-19 19:12:00,66.9,61.6,29.68,SSE,150,2.0,12.0,83,0.00,CLR,CLR,0.00,0.0,WeatherDisplay:10.37,2013-04-19 23:12:00,
2013-04-19 19:17:00,66.8,61.5,29.69,SSE,147,0.0,9.0,83,0.00,CLR,CLR,0.00,0.0,WeatherDisplay:10.37,2013-04-19 23:17:00,
2013-04-19 19:22:00,66.7,61.7,29.68,SSE,161,1.0,9.0,84,0.00,CLR,CLR,0.00,0.0,WeatherDisplay:10.37,2013-04-19 23:22:00,
2013-04-19 19:27:00,66.5,61.5,29.69,South,173,3.0,7.0,84,0.00,CLR,CLR,0.00,0.0,WeatherDisplay:10.37,2013-04-19 23:27:00,
2013-04-19 19:32:00,66.4,61.4,29.69,South,188,2.0,12.0,84,0.00,CLR,CLR,0.00,0.0,WeatherDisplay:10.37,2013-04-19 23:32:00,
2013-04-19 19:37:00,66.3,61.3,29.69,SSW,197,2.0,9.0,84,0.00,CLR,CLR,0.00,0.0,WeatherDisplay:10.37,2013-04-19 23:37:00,
2013-04-19 19:42:00,66.3,61.3,29.68,SSW,196,1.0,12.0,84,0.00,CLR,CLR,0.00,0.0,WeatherDisplay:10.37,2013-04-19 23:42:00,
2013-04-19 19:47:00,66.2,61.2,29.68,SSW,201,6.0,15.0,84,0.00,CLR,CLR,0.00,0.0,WeatherDisplay:10.37,2013-04-19 23:47:00,
2013-04-19 19:52:00,66.2,61.2,29.68,South,172,2.0,16.0,84,0.00,CLR,CLR,0.00,0.0,WeatherDisplay:10.37,2013-04-19 23:52:00,
2013-04-19 19:57:00,66.1,61.1,29.69,SSE,159,2.0,5.0,84,0.00,CLR,CLR,0.00,0.0,WeatherDisplay:10.37,2013-04-19 23:57:00,
2013-04-19 20:02:00,66.1,61.1,29.69,South,190,3.0,8.0,84,0.00,CLR,CLR,0.00,0.0,WeatherDisplay:10.37,2013-04-20 00:02:00,
2013-04-19 20:07:00,66.0,61.0,29.69,South,175,2.0,18.0,84,0.00,CLR,CLR,0.00,0.0,WeatherDisplay:10.37,2013-04-20 00:07:00,
2013-04-19 20:12:00,66.0,61.0,29.69,South,180,3.0,17.0,84,0.00,CLR,CLR,0.00,0.0,WeatherDisplay:10.37,2013-04-20 00:12:00,
2013-04-19 20:17:00,65.9,60.9,29.69,South,183,3.0,15.0,84,0.00,CLR,CLR,0.00,0.0,WeatherDisplay:10.37,2013-04-20 00:17:00,
2013-04-19 20:22:00,65.8,60.8,29.69,South,186,1.0,18.0,84,0.00,CLR,CLR,0.00,0.0,WeatherDisplay:10.37,2013-04-20 00:22:00,
2013-04-19 20:27:00,65.7,60.7,29.69,South,188,1.0,12.0,84,0.00,CLR,CLR,0.00,0.0,WeatherDisplay:10.37,2013-04-20 00:27:00,
2013-04-19 20:32:00,65.6,60.6,29.69,South,188,1.0,7.0,84,0.00,CLR,CLR,0.00,0.0,WeatherDisplay:10.37,2013-04-20 00:32:00,
2013-04-19 20:37:00,65.6,61.0,29.69,SSW,207,3.0,15.0,85,0.00,CLR,CLR,0.00,0.0,WeatherDisplay:10.37,2013-04-20 00:37:00,
2013-04-19 20:42:00,65.5,60.9,29.68,SSW,202,1.0,14.0,85,0.00,CLR,CLR,0.00,0.0,WeatherDisplay:10.37,2013-04-20 00:42:00,
2013-04-19 20:47:00,65.4,60.8,29.69,South,180,2.0,12.0,85,0.00,CLR,CLR,0.00,0.0,WeatherDisplay:10.37,2013-04-20 00:47:00,
2013-04-19 20:52:00,65.4,60.8,29.69,SSE,165,3.0,12.0,85,0.00,CLR,CLR,0.00,0.0,WeatherDisplay:10.37,2013-04-20 00:52:00,
2013-04-19 20:57:00,65.3,60.7,29.68,SSE,158,1.0,8.0,85,0.00,CLR,CLR,0.00,0.0,WeatherDisplay:10.37,2013-04-20 00:57:00,
2013-04-19 21:07:00,65.2,60.9,29.67,SSE,158,0.0,5.0,86,0.00,OVC,OVC,0.00,0.0,WeatherDisplay:10.37,2013-04-20 01:07:00,
2013-04-19 21:12:00,65.2,60.9,29.67,SSE,148,3.0,12.0,86,0.00,OVC,OVC,0.00,0.0,WeatherDisplay:10.37,2013-04-20 01:12:00,
2013-04-19 21:17:00,65.1,60.8,29.67,SSE,160,1.0,6.0,86,0.00,OVC,OVC,0.00,0.0,WeatherDisplay:10.37,2013-04-20 01:17:00,
2013-04-19 21:22:00,65.0,60.7,29.66,SSE,166,0.0,10.0,86,0.00,OVC,OVC,0.00,0.0,WeatherDisplay:10.37,2013-04-20 01:22:00,
2013-04-19 21:27:00,65.0,60.7,29.66,South,172,3.0,10.0,86,0.00,OVC,OVC,0.00,0.0,WeatherDisplay:10.37,2013-04-20 01:27:00,
2013-04-19 21:32:00,65.0,60.7,29.67,SSE,155,2.0,10.0,86,0.00,OVC,OVC,0.00,0.0,WeatherDisplay:10.37,2013-04-20 01:32:00,
2013-04-19 21:37:00,65.0,60.7,29.67,SSE,159,0.0,3.0,86,0.00,OVC,OVC,0.00,0.0,WeatherDisplay:10.37,2013-04-20 01:37:00,
2013-04-19 21:42:00,65.0,60.7,29.67,SSE,166,2.0,7.0,86,0.00,OVC,OVC,0.00,0.0,WeatherDisplay:10.37,2013-04-20 01:42:00,
2013-04-19 21:47:00,65.0,61.0,29.67,SSE,168,2.0,10.0,87,0.00,OVC,OVC,0.00,0.0,WeatherDisplay:10.37,2013-04-20 01:47:00,
2013-04-19 21:52:00,65.0,61.0,29.66,SSE,163,1.0,10.0,87,0.00,OVC,OVC,0.00,0.0,WeatherDisplay:10.37,2013-04-20 01:52:00,
2013-04-19 21:57:00,65.1,61.1,29.66,SSW,196,2.0,13.0,87,0.00,OVC,OVC,0.00,0.0,WeatherDisplay:10.37,2013-04-20 01:57:00,
2013-04-19 22:02:00,65.1,61.1,29.66,South,181,3.0,9.0,87,0.00,OVC,OVC,0.00,0.0,WeatherDisplay:10.37,2013-04-20 02:02:00,
2013-04-19 22:07:00,65.2,61.2,29.66,South,177,0.0,7.0,87,0.00,OVC,OVC,0.00,0.0,WeatherDisplay:10.37,2013-04-20 02:07:00,
2013-04-19 22:12:00,65.2,61.2,29.65,SSE,162,2.0,13.0,87,0.00,OVC,OVC,0.00,0.0,WeatherDisplay:10.37,2013-04-20 02:12:00,
2013-04-19 22:17:00,65.2,61.3,29.65,SSE,164,1.0,7.0,87,0.00,OVC,OVC,0.00,0.0,WeatherDisplay:10.37,2013-04-20 02:17:00,
2013-04-19 22:22:00,65.3,61.4,29.65,SSW,194,2.0,12.0,87,0.00,OVC,OVC,0.00,0.0,WeatherDisplay:10.37,2013-04-20 02:22:00,
2013-04-19 22:27:00,65.4,61.4,29.65,SSW,209,2.0,12.0,87,0.00,OVC,OVC,0.00,0.0,WeatherDisplay:10.37,2013-04-20 02:27:00,
2013-04-19 22:32:00,65.5,61.5,29.64,SSW,207,2.0,12.0,87,0.00,OVC,OVC,0.00,0.0,WeatherDisplay:10.37,2013-04-20 02:32:00,
2013-04-19 22:37:00,65.6,61.6,29.64,SSE,165,3.0,10.0,87,0.00,OVC,OVC,0.00,0.0,WeatherDisplay:10.37,2013-04-20 02:37:00,
2013-04-19 22:42:00,65.7,61.7,29.64,South,179,2.0,12.0,87,0.00,OVC,OVC,0.00,0.0,WeatherDisplay:10.37,2013-04-20 02:42:00,
2013-04-19 22:47:00,65.7,61.7,29.64,South,172,1.0,7.0,87,0.00,OVC,OVC,0.00,0.0,WeatherDisplay:10.37,2013-04-20 02:47:00,
2013-04-19 22:52:00,65.8,61.8,29.63,SSE,148,1.0,12.0,87,0.00,OVC,OVC,0.00,0.0,WeatherDisplay:10.37,2013-04-20 02:52:00,
2013-04-19 22:57:00,65.9,61.9,29.63,South,169,0.0,12.0,87,0.00,OVC,OVC,0.00,0.0,WeatherDisplay:10.37,2013-04-20 02:57:00,
2013-04-19 23:02:00,66.1,61.8,29.63,South,184,5.0,14.0,86,0.00,OVC,OVC,0.00,0.0,WeatherDisplay:10.37,2013-04-20 03:02:00,
2013-04-19 23:07:00,66.3,62.0,29.64,South,188,1.0,13.0,86,0.00,OVC,OVC,0.00,0.0,WeatherDisplay:10.37,2013-04-20 03:07:00,
2013-04-19 23:12:00,66.5,62.2,29.64,South,182,1.0,12.0,86,0.00,OVC,OVC,0.00,0.0,WeatherDisplay:10.37,2013-04-20 03:12:00,
2013-04-19 23:17:00,66.7,62.0,29.63,South,172,6.0,15.0,85,0.00,OVC,OVC,0.00,0.0,WeatherDisplay:10.37,2013-04-20 03:17:00,
2013-04-19 23:22:00,66.8,62.1,29.62,South,172,3.0,13.0,85,0.00,OVC,OVC,0.00,0.0,WeatherDisplay:10.37,2013-04-20 03:22:00,
2013-04-19 23:27:00,66.8,62.1,29.62,South,178,2.0,10.0,85,0.00,OVC,OVC,0.00,0.0,WeatherDisplay:10.37,2013-04-20 03:27:00,
2013-04-19 23:32:00,66.9,62.2,29.62,South,187,5.0,12.0,85,0.00,OVC,OVC,0.00,0.0,WeatherDisplay:10.37,2013-04-20 03:32:00,
2013-04-19 23:37:00,67.0,62.3,29.61,South,173,2.0,12.0,85,0.00,OVC,OVC,0.00,0.0,WeatherDisplay:10.37,2013-04-20 03:37:00,
2013-04-19 23:42:00,67.0,62.3,29.61,SSE,153,5.0,13.0,85,0.00,OVC,OVC,0.00,0.0,WeatherDisplay:10.37,2013-04-20 03:42:00,
2013-04-19 23:47:00,67.0,62.3,29.61,SSW,193,1.0,15.0,85,0.00,OVC,OVC,0.00,0.0,WeatherDisplay:10.37,2013-04-20 03:47:00,
2013-04-19 23:52:00,67.0,62.3,29.61,SSE,163,2.0,14.0,85,0.00,OVC,OVC,0.00,0.0,WeatherDisplay:10.37,2013-04-20 03:52:00,
2013-04-19 23:57:00,67.0,62.3,29.61,SSE,166,2.0,9.0,85,0.00,OVC,OVC,0.00,0.0,WeatherDisplay:10.37,2013-04-20 03:57:00,